Weather History for Harrison, AR

Change the Weather History Date:

Wednesday, October 24, 2012

  Actual Average Record
Temperature  
Mean Temperature 72 °F 57 °F  
Max Temperature 82 °F 68 °F 92 °F (1927)
Min Temperature 61 °F 46 °F 20 °F (1917)
Degree Days  
Heating Degree Days 0 9  
Month to date heating degree days 146 151  
Since 1 July heating degree days 169 194  
Cooling Degree Days 7 1  
Month to date cooling degree days 37 30  
Year to date cooling degree days 1959 1409  
Growing Degree Days 22 (Base 50)    
Moisture  
Dew Point 60 °F    
Average Humidity 70    
Maximum Humidity 93    
Minimum Humidity 47    
Precipitation  
Precipitation 0.00 in 0.12 in 1.31 in (1991)
Month to date precipitation 2.91 2.71  
Year to date precipitation 26.23 35.87  
Snow  
Snow 0.00 in 0.00 in - ()
Month to date snowfall 0.0 0.0  
Since 1 July snowfall 0.0 0.0  
Since 1 September snowfall 0.0 0.0  
Snow Depth 0.00 in    
Sea Level Pressure  
Sea Level Pressure 29.93 in    
Wind  
Wind Speed 11 mph (SSE)    
Max Wind Speed 21 mph    
Max Gust Speed 28 mph    
Visibility 10 miles    
Events      
T = Trace of Precipitation, MM = Missing Value Source: NWS Daily Summary

Daily Weather History Graph

Daily Weather History Graph

Search for Another Location

Airport:

Trip Planner

Search our weather history database for the weather conditions in past years. The results will help you decide how hot, cold, wet, or windy it might be!

Date:

Astronomy

Oct. 24, 2012 Rise Set
Actual Time 7:28 AM CDT 6:24 PM CDT
Civil Twilight 7:02 AM CDT 6:50 PM CDT
Nautical Twilight 6:31 AM CDT 7:20 PM CDT
Astronomical Twilight 6:02 AM CDT 7:50 PM CDT
Moon 3:33 PM CDT (10/24) 2:32 AM CDT (10/24)
Length of Visible Light 11h 48m
Length of Day
10h 56m
Waxing Gibbous, 76% of the Moon is Illuminated
Oct 24
Waxing Gibbous
Oct 29
Full
Nov 6
Last Quarter
Nov 13
New
Nov 20
First Quarter

Hourly Weather History & Observations

Time (CDT) Temp. Heat Index Dew Point Humidity Pressure Visibility Wind Dir Wind Speed Gust Speed Precip Events Conditions
1:53 AM 64.0 °F - 60.1 °F 87% 29.94 in 10.0 mi East 3.5 mph - N/A   Clear
2:53 AM 64.0 °F - 60.1 °F 87% 29.95 in 10.0 mi SE 9.2 mph - N/A   Clear
3:53 AM 63.0 °F - 60.1 °F 90% 29.94 in 10.0 mi SSE 9.2 mph - N/A   Clear
4:53 AM 62.1 °F - 59.0 °F 90% 29.96 in 10.0 mi SSE 8.1 mph - N/A   Clear
5:53 AM 62.1 °F - 60.1 °F 93% 29.97 in 10.0 mi SSE 5.8 mph - N/A   Clear
6:53 AM 62.1 °F - 60.1 °F 93% 29.98 in 10.0 mi SSE 9.2 mph - N/A   Clear
7:53 AM 63.0 °F - 60.1 °F 90% 29.98 in 10.0 mi SSE 11.5 mph - N/A   Clear
8:53 AM 66.0 °F - 61.0 °F 84% 29.99 in 10.0 mi SE 5.8 mph - N/A   Clear
9:53 AM 71.1 °F - 62.1 °F 73% 29.98 in 10.0 mi SSE 12.7 mph - N/A   Clear
10:29 AM 73.4 °F - 62.6 °F 69% 30.01 in 10.0 mi SSE 13.8 mph 18.4 mph N/A   Partly Cloudy
10:53 AM 75.9 °F - 62.1 °F 62% 29.98 in 10.0 mi South 10.4 mph - N/A   Partly Cloudy
11:53 AM 79.0 °F - 61.0 °F 54% 29.96 in 10.0 mi South 8.1 mph - N/A   Clear
12:53 PM 80.1 °F 81.1 °F 61.0 °F 52% 29.94 in 10.0 mi SSW 9.2 mph - N/A   Scattered Clouds
1:32 PM 80.6 °F 81.5 °F 60.8 °F 51% 29.96 in 9.0 mi South 11.5 mph 20.7 mph N/A   Scattered Clouds
1:53 PM 82.0 °F 82.4 °F 60.1 °F 47% 29.91 in 10.0 mi South 15.0 mph 20.7 mph N/A   Partly Cloudy
2:53 PM 81.0 °F 81.3 °F 59.0 °F 47% 29.89 in 10.0 mi South 13.8 mph 25.3 mph N/A   Partly Cloudy
3:01 PM 80.6 °F 81.5 °F 60.8 °F 51% 29.92 in 10.0 mi South 17.3 mph 23.0 mph N/A   Partly Cloudy
3:53 PM 81.0 °F 81.6 °F 60.1 °F 49% 29.88 in 10.0 mi South 12.7 mph 21.9 mph N/A   Clear
4:06 PM 78.8 °F - 60.8 °F 54% 29.92 in 10.0 mi South 13.8 mph 24.2 mph N/A   Partly Cloudy
4:53 PM 77.0 °F - 60.1 °F 56% 29.89 in 10.0 mi South 6.9 mph - N/A   Clear
5:53 PM 75.9 °F - 60.1 °F 58% 29.90 in 10.0 mi South 11.5 mph 19.6 mph N/A   Clear
6:53 PM 72.0 °F - 59.0 °F 64% 29.89 in 10.0 mi SSE 10.4 mph - N/A   Clear
7:53 PM 71.1 °F - 60.1 °F 68% 29.89 in 10.0 mi SSE 8.1 mph - N/A   Clear
8:53 PM 70.0 °F - 60.1 °F 71% 29.88 in 10.0 mi SSE 13.8 mph - N/A   Clear
9:53 PM 69.1 °F - 61.0 °F 75% 29.87 in 10.0 mi SSE 10.4 mph 18.4 mph N/A   Clear
10:53 PM 69.1 °F - 61.0 °F 75% 29.85 in 10.0 mi SSE 15.0 mph 20.7 mph N/A   Clear
11:53 PM 70.0 °F - 61.0 °F 73% 29.83 in 10.0 mi SSE 13.8 mph 25.3 mph N/A   Clear